Location: Archemont
(49.1579°N, 1.7598°E)
Time: 12:58:29
(UTC+00:00)

Transit 2A - Pass Details

Date: 16 April 2024
Orbit: 594 x 958 km, 66.7° (Epoch: 27 May)

Event Time Altitude Azimuth Distance (km) Brightness Sun altitude
Rises 12:22:31 0° 320° (NW) 3,066 8.9 50.8°
Reaches altitude 10° 12:26:21 10° 350° (N) 2,236 8.2 50.6°
Maximum altitude 12:28:24 12° 15° (NNE) 2,128 8.1 50.5°
Drops below altitude 10° 12:30:32 10° 38° (NE) 2,334 8.3 50.5°
Sets 12:34:45 0° 68° (ENE) 3,363 9.1 50.3°
